LogoCoinalyze
    Ad-Free Version 홈 마켓 펀딩비
    선물 데이터
    • 집계된 데이터 (코인들)
    • 개별 차트
    • 글로벌 차트
    알림
    TA
    Bitcoin Ethereum BNB Ripple Tron ZCash Dogecoin Monero UNUS SED LEO Chainlink Cardano Stellar Lumens Bitcoin Cash Litecoin Hedera Cronos Polkadot Ethereum Classic Algorand Quant Cosmos VeChain Dash Bitcoin SV BitTorrent Terra Decred Tezos Iota The Graph THETA Decentraland NEO Chiliz MultiversX Golem Basic Attention Token Horizen Qtum 0x DigiByte Beam FTX Token RIF Token Holo FUNToken Zilliqa Ontology aelf Nano Enjin Coin Ravencoin Siacoin Mask Network Verge Status WINk Waves IoTeX iExec RLC Power Ledger Steem Kyber Network Crystal Lisk Ardor Ark IOST WOO Network WAX Icon Storj Wanchain Loopring Bitcoin Diamond AdEx Bitcoin Gold Augur OmiseGO NEM MonaCoin BitShares Ren Komodo V Systems Nuls Mithril SOLVE Maker Aion EOS Nebulas HedgeTrade Bread Fetch.ai TomoChain Polygon Fantom Waltonchain GXChain Bytom Metaverse ETP MaidSafeCoin QASH
    정렬 검색:
    더보기
    • API
    • 캔들 유형
    • 블로그
    • 기부
    • 연락하기
    • 사이트맵
    • Privacy Policy
    • Disclaimer
    • Theme:
    한국어
    • English
    • Français
    • Русский
    • Deutsch
    • Türkçe
    • Nederlands
    • Português (BR)
    • Español
    • 简体中文
    • 日本語
     
    로그인 / 회원가입
    Markets/ Pepe/ PEPE 로 USD/ PEPEUSD Coinbase
    Trades
    WL
    채팅
    통계
    뉴스
    ⦷
    AAA
    0.00000347 5969842.00000000 04:58:06
    0.00000347 60863773.00000000 04:57:40
    0.00000347 3727665.00000000 04:57:10
    0.00000347 2876607.00000000 04:56:54
    0.00000347 5900000.00000000 04:54:46
    0.00000347 432901.00000000 04:54:23
    0.00000347 4461512.00000000 04:53:43
    0.00000347 842357.00000000 04:53:06
    0.00000347 282667799.00000000 04:52:34
    0.00000347 303031090.00000000 04:52:34
    0.00000347 290556010.00000000 04:52:34
    0.00000347 47198940.00000000 04:52:34
    0.00000347 154687500.00000000 04:52:34
    0.00000346 146974.00000000 04:50:32
    0.00000347 416000000.00000000 04:49:40
    0.00000347 283077114.00000000 04:49:40
    0.00000347 54755043.00000000 04:48:52
    0.00000347 47198940.00000000 04:48:51
    0.00000347 47198940.00000000 04:48:49
    0.00000347 47198940.00000000 04:48:47
    0.00000347 47198940.00000000 04:48:45
    0.00000347 47198940.00000000 04:48:43
    0.00000347 47198940.00000000 04:48:41
    0.00000347 47198940.00000000 04:48:39
    0.00000347 47198940.00000000 04:48:37
    0.00000347 150000000.00000000 04:48:35
    0.00000347 47198940.00000000 04:48:35
    0.00000347 30700000.00000000 04:48:34
    0.00000347 154687500.00000000 04:48:33
    0.00000347 47198940.00000000 04:48:33
    0.00000347 30700000.00000000 04:48:33
    0.00000346 30407264.00000000 04:47:52
    0.00000346 3233960.00000000 04:47:52
    0.00000346 30700000.00000000 04:47:52
    0.00000346 107983966.00000000 04:47:52
    0.00000347 142210662.00000000 04:47:52
    0.00000347 30700000.00000000 04:47:48
    0.00000347 17860725.00000000 04:47:40
    0.00000347 155931309.00000000 04:47:36
    0.00000347 29700549.00000000 04:47:32
    0.00000347 13890180.00000000 04:47:30
    0.00000347 141563484.00000000 04:47:28
    0.00000347 17592525.00000000 04:47:28
    0.00000347 14778929.00000000 04:47:25
    0.00000347 8096976.00000000 04:47:24
    0.00000347 6730510.00000000 04:47:22
    0.00000347 137843787.00000000 04:47:22
    0.00000347 16843713.00000000 04:46:45
    0.00000347 10700000.00000000 04:46:45
    0.00000347 30700000.00000000 04:45:34
    0.00000347 115915869.00000000 04:45:28
    0.00000347 299684131.00000000 04:45:28
    0.00000347 54755043.00000000 04:45:12
    0.00000347 154687500.00000000 04:45:12
    0.00000347 416000000.00000000 04:45:12
    0.00000347 47198940.00000000 04:45:12
    0.00000347 416000000.00000000 04:44:13
    0.00000347 16498940.00000000 04:44:13
    0.00000347 30700000.00000000 04:43:46
    0.00000347 385300000.00000000 04:43:26
    0.00000347 30700000.00000000 04:42:48
    0.00000347 30700000.00000000 04:42:28
    0.00000347 2159827.00000000 04:42:28
    0.00000347 9937135.00000000 04:42:19
    0.00000347 306028490.00000000 04:42:19
    0.00000347 328302285.00000000 04:42:19
    0.00000347 30700000.00000000 04:42:19
    0.00000347 47198940.00000000 04:42:19
    0.00000347 47198940.00000000 04:42:17
    0.00000347 49459735.00000000 04:41:45
    0.00000347 112976115.00000000 04:41:45
    0.00000347 129475055.00000000 04:41:44
    0.00000347 112976115.00000000 04:41:44
    0.00000347 16498940.00000000 04:41:44
    0.00000347 47198940.00000000 04:41:44
    0.00000347 47198940.00000000 04:41:44
    0.00000347 47198940.00000000 04:41:44
    0.00000347 16498940.00000000 04:41:44
    0.00000347 30700000.00000000 04:41:44
    0.00000347 5966234.00000000 04:41:05
    0.00000347 416000000.00000000 04:40:47
    0.00000347 17693702.00000000 04:40:47
    0.00000347 37061341.00000000 04:40:46
    0.00000347 6100000.00000000 04:40:46
    0.00000347 27548312.00000000 04:40:46
    0.00000347 74245941.00000000 04:40:44
    0.00000347 83674501.00000000 04:40:43
    0.00000347 81953255.00000000 04:40:42
    0.00000347 82902036.00000000 04:40:41
    0.00000347 65675955.00000000 04:40:40
    0.00000347 47198940.00000000 04:40:40
    0.00000347 154687500.00000000 04:40:40
    0.00000347 10329611.00000000 04:39:12
    0.00000347 12.00000000 04:39:12
    0.00000346 334595.00000000 04:37:24
    0.00000346 364709.00000000 04:37:15
    0.00000347 3423631.00000000 04:37:10
    0.00000347 273890.00000000 04:37:08
    0.00000346 662499.00000000 04:36:57
    0.00000346 662499.00000000 04:36:42
    로그아웃
    AAA
    고객 센터
    🙂 🤣 😎 🤗 😛 😉 😜 🤑 🤔 😑 😴 😕 🙃 😲 😇 🙁 😢 😬 😟 😠 🕺 🏃 💪 ✌ 👌 👍 👎 👏 👋 🤝 🍺 🍻 🐋 🐟 🦈 🗽 🚄 ✈ 🛑 🚀 🏦 🌚 ⭐ 🌞 ⚡ 🏆 💰 💲 🔨 ❓ ❗ 💯 🔶 🏁
    ☺
    로그인 또는 회원가입 및 채팅
    24시간
    변동
    -1.42%
    거래량
    621,473,056,803
    고가
    0.00000357
    저가
    0.00000343
    7일
    변동
    -8.92%
    거래량
    3,727,922,333,803
    고가
    0.00000401
    저가
    0.00000337
    30일
    변동
    +19.24%
    거래량
    19,894,484,882,523
    고가
    0.00000456
    저가
    0.00000253
    Pepe price rallies 25% as whale demand and futures interest surge
    Key takeaways Pepe has gained 25% this week, including a combined 22% advance over the previous two days. Seven whale transactions worth more than $1 million each occurred Thursday, the highest...
    coinjournal.net
    Aug 21, 2026 08:41
    PEPE Supply on Exchanges Just Took a Massive Hit – What’s Next?
    A drop in PEPE exchange balances has added to bullish expectations despite muted trader interest.
    cryptopotato.com
    Aug 6, 2026 20:02
    PEPE Exchange Outflows Hit Nearly 2-Year High as Whales Accumulate
    Pepe (PEPE) recorded its largest single-day exchange outflow since November 2024, with 4.54 trillion tokens leaving trading platforms, signaling that holders are moving supply away from immediate...
    beincrypto.com
    Aug 6, 2026 04:57
    Meme Coin Based on White House Shooter Conspiracy Rallies 320%
    $HENRY surged 300% after a 2023 Pepe tweet appeared to name the White House shooter, fueling a viral time-travel meme. The post Meme Coin Based on White House Shooter Conspiracy Rallies 320%...
    beincrypto.com
    Apr 27, 2026 16:11
    PEPE surges 4% as market sentiment improves, eyes Key resistance breakout
    Key takeaways Pepe extends gains on Wednesday, stretching its rally from the 50-day EMA. Derivatives data show heightened retail activity as risk-on sentiment returns to the market. Pepe (PEPE) is...
    coinjournal.net
    Apr 22, 2026 11:44
    Why The PEPE Price Could Stage A 55X Rally To Reach New $0.0001 ATH
    The PEPE price has now started to edge back into bullish conversations after the recent inflows into the crypto market. The last time PEPE’s weekly chart printed the kind of structure now...
    newsbtc.com
    Apr 21, 2026 15:30
    Pepe (PEPE) surges 9%, drawing interest from whales
    Key takeaways PEPE is up 9% in the last 24 hours, making it one of the best performers among the top 50 cryptocurrencies by market cap. The rally comes amid renewed interest from whales and retail...
    coinjournal.net
    Apr 16, 2026 07:40
    Murad Says SPX6900 (SPX) Is Primed for a Rally — Is He Right This Time?
    Crypto influencer Murad Mahmudov claims SPX6900 (SPX) is stabilizing at the same market cap level where Dogecoin (DOGE) and Pepe (PEPE) consolidated before their explosive rallies. The...
    beincrypto.com
    Apr 5, 2026 21:36
    The Shiba Inu Of This Cycle: Analyst Shares Why It Is Better To Buy PEPE Now
    In the bull market cycle of 2021-2022, the Shiba Inu meme coin made waves in a way that changed the face of meme coins forever. This came after Dogecoin’s initial 36,000% rally, and Shiba Inu...
    newsbtc.com
    Apr 4, 2026 07:30
    PEPE Explodes by 18% Amid Altcoin Rally, BTC Tapped $74K: Market Watch
    The frog-themed meme coin is today's biggest gainer, followed by TAO, DOT, and BONK.
    cryptopotato.com
    Mar 16, 2026 10:56
    Should PEPE traders brace for volatility as short squeeze potential builds?
    The memecoin market has seen its collective market capitalization drop by 48% over the past year, and 6.9% over the past month, according to CoinMarketCap. According to Glassnode, the memecoin...
    ambcrypto.com
    Mar 7, 2026 18:00
    간단히 명령어를 채팅방에 입력하세요. Nick1을 실제 사용할 닉네임으로 바꾸세요
    • /ignore nick1 채팅 사용자를 차단합니다
    • /unignore nick1 채팅 사용자를 차단 해제합니다
    • /ignorelist 차단된 채팅 사용자 보기